Wetterdaten: aktuell Donnerstag, 09.02.2023 04:24
Datum Zeit Temp. I. Temp. 2m Temp. 5cm LF I. Luftdruck Regen Wind Richtung Richtung Taupunkt Windchill Windben
09.02.2023 04:24 5,9 C -8,6 C -8,3 C 52 % 1026,5 hPa 0,0 l/m 0,3 km/h (0 Bft) W 270 -13,4 C -8,6 C 0,0 km/h (0 Bft)
09.02.2023 04:22 5,9 C -8,4 C -8,2 C 52 % 1026,5 hPa 0,0 l/m 0,3 km/h (0 Bft) SW 225 -13,2 C -8,4 C 0,0 km/h (0 Bft)
09.02.2023 04:20 5,9 C -8,4 C -8,2 C 52 % 1026,5 hPa 0,0 l/m 0,3 km/h (0 Bft) SO 135 -13,2 C -8,4 C 4,1 km/h (1 Bft)
09.02.2023 04:18 5,9 C -8,4 C -8,2 C 52 % 1026,5 hPa 0,0 l/m 0,0 km/h (0 Bft) S 180 -13,2 C -8,4 C 0,0 km/h (0 Bft)
09.02.2023 04:16 5,9 C -8,4 C -8,0 C 52 % 1026,8 hPa 0,0 l/m 0,0 km/h (0 Bft) O-SO 112 -13,2 C -8,4 C 2,4 km/h (1 Bft)
09.02.2023 04:14 5,9 C -8,4 C -8,2 C 52 % 1026,8 hPa 0,0 l/m 0,0 km/h (0 Bft) S 180 -13,2 C -8,4 C 0,0 km/h (0 Bft)
09.02.2023 04:12 5,8 C -8,2 C -8,2 C 52 % 1026,8 hPa 0,0 l/m 0,0 km/h (0 Bft) W-SW 247 -12,9 C -8,2 C 0,0 km/h (0 Bft)
09.02.2023 04:10 5,8 C -8,1 C -8,0 C 52 % 1026,8 hPa 0,0 l/m 0,2 km/h (0 Bft) O 90 -12,8 C -8,1 C 0,0 km/h (0 Bft)
09.02.2023 04:08 5,8 C -8,1 C -7,9 C 52 % 1026,8 hPa 0,0 l/m 0,2 km/h (0 Bft) SW 225 -12,8 C -8,1 C 0,0 km/h (0 Bft)
09.02.2023 04:06 5,8 C -7,9 C -7,8 C 52 % 1026,8 hPa 0,0 l/m 0,2 km/h (0 Bft) SO 135 -12,6 C -7,9 C 0,0 km/h (0 Bft)
09.02.2023 04:04 6,0 C -7,8 C -7,8 C 52 % 1026,8 hPa 0,0 l/m 0,2 km/h (0 Bft) S-SO 157 -12,5 C -7,8 C 0,0 km/h (0 Bft)
09.02.2023 04:02 5,8 C -7,8 C -7,6 C 52 % 1026,8 hPa 0,0 l/m 0,2 km/h (0 Bft) O-SO 112 -12,5 C -7,8 C 0,0 km/h (0 Bft)
09.02.2023 04:00 6,0 C -7,9 C -7,8 C 52 % 1026,8 hPa 0,0 l/m 0,0 km/h (0 Bft) S-SW 202 -12,6 C -7,9 C 0,0 km/h (0 Bft)
09.02.2023 03:58 6,0 C -8,1 C -7,9 C 52 % 1026,8 hPa 0,0 l/m 0,0 km/h (0 Bft) S-SW 202 -12,8 C -8,1 C 0,0 km/h (0 Bft)
09.02.2023 03:56 6,0 C -8,2 C -8,0 C 52 % 1026,8 hPa 0,0 l/m 0,0 km/h (0 Bft) SW 225 -12,9 C -8,2 C 0,0 km/h (0 Bft)
09.02.2023 03:54 6,0 C -8,4 C -8,0 C 52 % 1026,8 hPa 0,0 l/m 0,0 km/h (0 Bft) NW 315 -13,0 C -8,4 C 0,0 km/h (0 Bft)
09.02.2023 03:52 6,0 C -8,4 C -8,0 C 52 % 1026,8 hPa 0,0 l/m 0,0 km/h (0 Bft) SW 225 -13,0 C -8,4 C 0,0 km/h (0 Bft)
09.02.2023 03:50 6,0 C -8,4 C -8,2 C 52 % 1026,8 hPa 0,0 l/m 0,0 km/h (0 Bft) N-NW 337 -13,0 C -8,4 C 0,0 km/h (0 Bft)
09.02.2023 03:48 6,0 C -8,4 C -8,2 C 52 % 1026,8 hPa 0,0 l/m 0,0 km/h (0 Bft) SW 225 -13,0 C -8,4 C 0,0 km/h (0 Bft)
09.02.2023 03:46 6,0 C -8,2 C -8,2 C 52 % 1026,8 hPa 0,0 l/m 0,0 km/h (0 Bft) W 270 -12,9 C -8,2 C 0,0 km/h (0 Bft)
09.02.2023 03:44 6,0 C -8,2 C -8,2 C 52 % 1026,8 hPa 0,0 l/m 0,0 km/h (0 Bft) W-NW 292 -12,9 C -8,2 C 0,0 km/h (0 Bft)
09.02.2023 03:42 6,0 C -8,2 C -8,2 C 52 % 1026,8 hPa 0,0 l/m 0,0 km/h (0 Bft) N-NO 22 -12,9 C -8,2 C 0,0 km/h (0 Bft)
09.02.2023 03:40 6,0 C -8,2 C -8,0 C 52 % 1026,8 hPa 0,0 l/m 0,0 km/h (0 Bft) SO 135 -12,9 C -8,2 C 2,4 km/h (1 Bft)
09.02.2023 03:38 6,0 C -8,4 C -8,0 C 52 % 1026,8 hPa 0,0 l/m 0,0 km/h (0 Bft) W 270 -13,0 C -8,4 C 0,0 km/h (0 Bft)
09.02.2023 03:36 6,0 C -8,4 C -7,9 C 52 % 1026,9 hPa 0,0 l/m 0,0 km/h (0 Bft) N-NW 337 -13,0 C -8,4 C 0,0 km/h (0 Bft)
09.02.2023 03:34 6,0 C -8,4 C -8,0 C 52 % 1026,9 hPa 0,0 l/m 0,0 km/h (0 Bft) NW 315 -13,0 C -8,4 C 0,0 km/h (0 Bft)
09.02.2023 03:32 6,0 C -8,4 C -8,0 C 52 % 1026,9 hPa 0,0 l/m 0,0 km/h (0 Bft) S-SO 157 -13,0 C -8,4 C 0,0 km/h (0 Bft)
09.02.2023 03:30 6,0 C -8,4 C -8,0 C 52 % 1026,9 hPa 0,0 l/m 0,0 km/h (0 Bft) O-SO 112 -13,0 C -8,4 C 0,0 km/h (0 Bft)
09.02.2023 03:28 6,0 C -8,2 C -8,0 C 52 % 1026,9 hPa 0,0 l/m 0,0 km/h (0 Bft) SO 135 -12,9 C -8,2 C 0,0 km/h (0 Bft)
09.02.2023 03:26 6,0 C -8,4 C -8,0 C 52 % 1026,9 hPa 0,0 l/m 0,0 km/h (0 Bft) S 180 -13,0 C -8,4 C 0,0 km/h (0 Bft)
09.02.2023 03:24 6,0 C -8,2 C -8,0 C 52 % 1026,9 hPa 0,0 l/m 0,0 km/h (0 Bft) SO 135 -12,9 C -8,2 C 0,0 km/h (0 Bft)
09.02.2023 03:22 6,0 C -8,4 C -8,2 C 52 % 1026,9 hPa 0,0 l/m 0,0 km/h (0 Bft) NW 315 -13,0 C -8,4 C 0,0 km/h (0 Bft)
09.02.2023 03:20 6,0 C -8,4 C -7,9 C 52 % 1026,9 hPa 0,0 l/m 0,0 km/h (0 Bft) S-SO 157 -13,0 C -8,4 C 0,0 km/h (0 Bft)
09.02.2023 03:18 6,0 C -8,6 C -8,0 C 52 % 1026,9 hPa 0,0 l/m 0,0 km/h (0 Bft) S 180 -13,2 C -8,6 C 0,0 km/h (0 Bft)
09.02.2023 03:16 6,0 C -8,6 C -8,0 C 52 % 1027,1 hPa 0,0 l/m 0,0 km/h (0 Bft) SW 225 -13,2 C -8,6 C 0,0 km/h (0 Bft)
09.02.2023 03:14 6,0 C -8,6 C -8,0 C 52 % 1027,1 hPa 0,0 l/m 0,0 km/h (0 Bft) SW 225 -13,2 C -8,6 C 0,0 km/h (0 Bft)
09.02.2023 03:12 6,0 C -8,4 C -8,2 C 52 % 1027,1 hPa 0,0 l/m 0,0 km/h (0 Bft) SO 135 -13,0 C -8,4 C 0,0 km/h (0 Bft)
09.02.2023 03:10 6,0 C -8,6 C -8,2 C 52 % 1027,1 hPa 0,0 l/m 0,2 km/h (0 Bft) O-SO 112 -13,2 C -8,6 C 0,0 km/h (0 Bft)
09.02.2023 03:08 6,0 C -8,6 C -8,0 C 52 % 1027,1 hPa 0,0 l/m 0,2 km/h (0 Bft) S-SO 157 -13,2 C -8,6 C 0,0 km/h (0 Bft)
09.02.2023 03:06 6,0 C -8,6 C -8,0 C 52 % 1027,1 hPa 0,0 l/m 0,2 km/h (0 Bft) SO 135 -13,2 C -8,6 C 0,0 km/h (0 Bft)
09.02.2023 03:04 6,0 C -8,4 C -7,9 C 52 % 1027,1 hPa 0,0 l/m 0,2 km/h (0 Bft) S 180 -13,0 C -8,4 C 0,0 km/h (0 Bft)
09.02.2023 03:02 6,0 C -8,4 C -8,0 C 52 % 1027,1 hPa 0,0 l/m 0,2 km/h (0 Bft) S 180 -13,0 C -8,4 C 0,0 km/h (0 Bft)
09.02.2023 03:00 6,0 C -8,6 C -7,9 C 52 % 1027,1 hPa 0,0 l/m 0,0 km/h (0 Bft) SW 225 -13,2 C -8,6 C 0,0 km/h (0 Bft)
09.02.2023 02:58 6,0 C -8,6 C -8,0 C 52 % 1027,1 hPa 0,0 l/m 0,0 km/h (0 Bft) NW 315 -13,2 C -8,6 C 0,0 km/h (0 Bft)
09.02.2023 02:56 6,0 C -8,6 C -7,9 C 52 % 1027,6 hPa 0,0 l/m 0,0 km/h (0 Bft) W-SW 247 -13,2 C -8,6 C 2,9 km/h (1 Bft)
09.02.2023 02:54 6,0 C -8,6 C -7,8 C 52 % 1027,6 hPa 0,0 l/m 0,0 km/h (0 Bft) S-SW 202 -13,2 C -8,6 C 0,0 km/h (0 Bft)
09.02.2023 02:52 6,0 C -8,6 C -7,8 C 52 % 1027,6 hPa 0,0 l/m 0,2 km/h (0 Bft) S 180 -13,2 C -8,6 C 0,0 km/h (0 Bft)
09.02.2023 02:50 6,0 C -8,6 C -7,9 C 52 % 1027,6 hPa 0,0 l/m 0,2 km/h (0 Bft) S 180 -13,2 C -8,6 C 0,0 km/h (0 Bft)
09.02.2023 02:48 6,0 C -8,6 C -7,9 C 52 % 1027,6 hPa 0,0 l/m 0,2 km/h (0 Bft) SO 135 -13,2 C -8,6 C 0,0 km/h (0 Bft)
09.02.2023 02:46 6,0 C -8,6 C -8,0 C 52 % 1027,6 hPa 0,0 l/m 0,2 km/h (0 Bft) S 180 -13,2 C -8,6 C 0,0 km/h (0 Bft)
09.02.2023 02:44 6,0 C -8,6 C -8,0 C 52 % 1027,6 hPa 0,0 l/m 0,3 km/h (0 Bft) S 180 -13,2 C -8,6 C 0,0 km/h (0 Bft)
09.02.2023 02:42 6,0 C -8,6 C -8,2 C 52 % 1027,6 hPa 0,0 l/m 0,8 km/h (0 Bft) S 180 -13,2 C -8,6 C 0,0 km/h (0 Bft)
09.02.2023 02:40 6,0 C -8,6 C -8,2 C 52 % 1027,6 hPa 0,0 l/m 1,1 km/h (1 Bft) S 180 -13,2 C -8,6 C 0,0 km/h (0 Bft)
09.02.2023 02:38 6,0 C -8,4 C -8,2 C 52 % 1027,6 hPa 0,0 l/m 1,6 km/h (1 Bft) W-SW 247 -13,0 C -8,4 C 0,0 km/h (0 Bft)
09.02.2023 02:36 6,0 C -8,4 C -8,0 C 52 % 1027,9 hPa 0,0 l/m 1,9 km/h (1 Bft) NW 315 -13,0 C -8,4 C 3,1 km/h (1 Bft)
09.02.2023 02:34 6,0 C -8,4 C -7,9 C 52 % 1027,9 hPa 0,0 l/m 1,6 km/h (1 Bft) W 270 -13,0 C -8,4 C 0,0 km/h (0 Bft)
09.02.2023 02:32 6,0 C -8,4 C -7,9 C 52 % 1027,9 hPa 0,0 l/m 1,4 km/h (1 Bft) S 180 -13,0 C -8,4 C 4,6 km/h (1 Bft)
09.02.2023 02:30 6,0 C -8,4 C -7,9 C 52 % 1027,9 hPa 0,0 l/m 1,0 km/h (0 Bft) S-SO 157 -13,0 C -8,4 C 4,8 km/h (1 Bft)
09.02.2023 02:28 6,0 C -8,4 C -7,9 C 52 % 1027,9 hPa 0,0 l/m 0,5 km/h (0 Bft) S-SO 157 -13,0 C -8,4 C 2,9 km/h (1 Bft)
09.02.2023 02:26 6,0 C -8,4 C -7,9 C 52 % 1027,9 hPa 0,0 l/m 0,2 km/h (0 Bft) SW 225 -13,0 C -8,4 C 3,4 km/h (1 Bft)
09.02.2023 02:24 6,0 C -8,4 C -7,9 C 52 % 1027,9 hPa 0,0 l/m 0,2 km/h (0 Bft) S-SO 157 -13,0 C -8,4 C 0,0 km/h (0 Bft)
09.02.2023 02:22 6,0 C -8,2 C -8,0 C 52 % 1027,9 hPa 0,0 l/m 0,3 km/h (0 Bft) NW 315 -12,9 C -8,2 C 0,0 km/h (0 Bft)
09.02.2023 02:20 6,0 C -8,1 C -7,9 C 52 % 1027,9 hPa 0,0 l/m 0,8 km/h (0 Bft) SO 135 -12,8 C -8,1 C 0,0 km/h (0 Bft)
09.02.2023 02:18 6,0 C -7,9 C -7,9 C 52 % 1027,9 hPa 0,0 l/m 1,6 km/h (1 Bft) N-NW 337 -12,6 C -7,9 C 0,0 km/h (0 Bft)
09.02.2023 02:16 6,0 C -7,8 C -7,9 C 52 % 1028,1 hPa 0,0 l/m 2,3 km/h (1 Bft) S 180 -12,5 C -7,8 C 0,0 km/h (0 Bft)
09.02.2023 02:14 5,9 C -7,6 C -7,9 C 52 % 1028,1 hPa 0,0 l/m 2,4 km/h (1 Bft) S-SO 157 -12,3 C -7,6 C 0,0 km/h (0 Bft)
09.02.2023 02:12 6,0 C -7,6 C -7,8 C 52 % 1028,1 hPa 0,0 l/m 2,4 km/h (1 Bft) N-NW 337 -12,3 C -7,6 C 3,1 km/h (1 Bft)
09.02.2023 02:10 6,0 C -7,6 C -7,3 C 52 % 1028,1 hPa 0,0 l/m 2,1 km/h (1 Bft) S 180 -12,3 C -7,6 C 2,4 km/h (1 Bft)
09.02.2023 02:08 6,0 C -7,8 C -7,5 C 52 % 1028,1 hPa 0,0 l/m 1,4 km/h (1 Bft) SO 135 -12,5 C -7,8 C 11,3 km/h (2 Bft)
09.02.2023 02:06 6,0 C -7,8 C -7,6 C 52 % 1028,1 hPa 0,0 l/m 1,0 km/h (0 Bft) S 180 -12,5 C -7,8 C 6,0 km/h (2 Bft)
09.02.2023 02:04 6,0 C -7,8 C -7,9 C 52 % 1028,1 hPa 0,0 l/m 0,6 km/h (0 Bft) S-SO 157 -12,5 C -7,8 C 0,0 km/h (0 Bft)
09.02.2023 02:02 6,0 C -7,6 C -7,9 C 52 % 1028,1 hPa 0,0 l/m 0,6 km/h (0 Bft) SO 135 -12,3 C -7,6 C 0,0 km/h (0 Bft)
09.02.2023 02:00 6,0 C -7,3 C -7,8 C 52 % 1028,1 hPa 0,0 l/m 0,5 km/h (0 Bft) N-NO 22 -12,0 C -7,3 C 0,0 km/h (0 Bft)
09.02.2023 01:58 6,0 C -7,3 C -7,8 C 52 % 1028,1 hPa 0,0 l/m 0,6 km/h (0 Bft) NW 315 -12,0 C -7,3 C 0,0 km/h (0 Bft)
09.02.2023 01:56 6,0 C -7,3 C -7,8 C 52 % 1028,3 hPa 0,0 l/m 0,8 km/h (0 Bft) N-NW 337 -12,0 C -7,3 C 3,6 km/h (1 Bft)
09.02.2023 01:54 5,9 C -7,0 C -7,5 C 52 % 1028,3 hPa 0,0 l/m 0,8 km/h (0 Bft) N-NO 22 -11,7 C -7,0 C 0,0 km/h (0 Bft)
09.02.2023 01:52 5,9 C -6,7 C -6,9 C 52 % 1028,3 hPa 0,0 l/m 1,1 km/h (1 Bft) N-NW 337 -11,4 C -6,7 C 0,0 km/h (0 Bft)
09.02.2023 01:50 6,0 C -6,9 C -6,9 C 52 % 1028,3 hPa 0,0 l/m 1,3 km/h (1 Bft) SO 135 -11,4 C -6,9 C 0,0 km/h (0 Bft)
09.02.2023 01:48 6,0 C -6,9 C -7,0 C 52 % 1028,3 hPa 0,0 l/m 1,4 km/h (1 Bft) SW 225 -11,4 C -6,9 C 0,0 km/h (0 Bft)
09.02.2023 01:46 6,0 C -6,9 C -7,0 C 52 % 1028,3 hPa 0,0 l/m 1,6 km/h (1 Bft) SO 135 -11,4 C -6,9 C 4,6 km/h (1 Bft)
09.02.2023 01:44 5,9 C -6,7 C -7,0 C 52 % 1028,3 hPa 0,0 l/m 1,4 km/h (1 Bft) S-SO 157 -11,2 C -6,7 C 0,0 km/h (0 Bft)
09.02.2023 01:42 5,9 C -6,7 C -7,0 C 52 % 1028,3 hPa 0,0 l/m 2,1 km/h (1 Bft) SO 135 -11,2 C -6,7 C 4,8 km/h (1 Bft)
09.02.2023 01:40 6,0 C -6,6 C -7,0 C 52 % 1028,3 hPa 0,0 l/m 1,9 km/h (1 Bft) O-SO 112 -11,1 C -6,6 C 2,4 km/h (1 Bft)
09.02.2023 01:38 5,9 C -6,6 C -6,9 C 52 % 1028,3 hPa 0,0 l/m 1,8 km/h (1 Bft) SO 135 -11,1 C -6,6 C 3,1 km/h (1 Bft)
09.02.2023 01:36 6,0 C -6,4 C -6,9 C 52 % 1028,2 hPa 0,0 l/m 1,9 km/h (1 Bft) SO 135 -10,9 C -6,4 C 2,7 km/h (1 Bft)
09.02.2023 01:34 6,0 C -6,4 C -6,9 C 52 % 1028,2 hPa 0,0 l/m 1,6 km/h (1 Bft) S-SO 157 -10,8 C -6,4 C 10,4 km/h (2 Bft)
09.02.2023 01:32 5,9 C -6,4 C -6,7 C 52 % 1028,2 hPa 0,0 l/m 1,8 km/h (1 Bft) O-NO 67 -10,8 C -6,4 C 7,2 km/h (2 Bft)
09.02.2023 01:30 5,9 C -6,2 C -6,7 C 52 % 1028,2 hPa 0,0 l/m 1,9 km/h (1 Bft) S-SO 157 -10,6 C -6,2 C 2,9 km/h (1 Bft)
09.02.2023 01:28 6,0 C -6,2 C -6,4 C 52 % 1028,2 hPa 0,0 l/m 2,4 km/h (1 Bft) S-SW 202 -10,6 C -6,2 C 3,4 km/h (1 Bft)
09.02.2023 01:26 5,9 C -6,2 C -6,1 C 52 % 1028,2 hPa 0,0 l/m 2,9 km/h (1 Bft) W 270 -10,4 C -6,2 C 3,9 km/h (1 Bft)
09.02.2023 01:24 5,9 C -6,5 C -6,4 C 52 % 1028,2 hPa 0,0 l/m 3,7 km/h (1 Bft) O 90 -10,7 C -6,5 C 0,0 km/h (0 Bft)
09.02.2023 01:22 5,9 C -6,8 C -6,4 C 52 % 1028,2 hPa 0,0 l/m 4,0 km/h (1 Bft) SO 135 -11,0 C -6,8 C 4,8 km/h (1 Bft)
09.02.2023 01:20 5,9 C -6,8 C -6,6 C 52 % 1028,2 hPa 0,0 l/m 4,3 km/h (1 Bft) S-SO 157 -11,0 C -6,8 C 2,4 km/h (1 Bft)
09.02.2023 01:18 5,9 C -7,0 C -6,6 C 52 % 1028,2 hPa 0,0 l/m 4,5 km/h (1 Bft) S-SO 157 -11,2 C -7,0 C 8,7 km/h (2 Bft)
09.02.2023 01:16 5,9 C -7,2 C -6,7 C 52 % 1028,4 hPa 0,0 l/m 4,2 km/h (1 Bft) S-SO 157 -11,4 C -7,2 C 7,7 km/h (2 Bft)
09.02.2023 01:14 6,0 C -7,3 C -6,9 C 52 % 1028,4 hPa 0,0 l/m 3,5 km/h (1 Bft) S-SO 157 -11,5 C -7,3 C 10,4 km/h (2 Bft)
09.02.2023 01:12 5,9 C -7,3 C -7,0 C 52 % 1028,4 hPa 0,0 l/m 2,9 km/h (1 Bft) SO 135 -11,5 C -7,3 C 11,6 km/h (2 Bft)
09.02.2023 01:10 5,9 C -7,6 C -7,2 C 52 % 1028,4 hPa 0,0 l/m 2,6 km/h (1 Bft) SO 135 -11,8 C -7,6 C 8,2 km/h (2 Bft)
09.02.2023 01:08 5,9 C -7,9 C -7,6 C 52 % 1028,4 hPa 0,0 l/m 2,1 km/h (1 Bft) S-SO 157 -12,0 C -7,9 C 4,6 km/h (1 Bft)
09.02.2023 01:06 5,9 C -7,9 C -7,8 C 52 % 1028,4 hPa 0,0 l/m 2,1 km/h (1 Bft) SW 225 -12,0 C -7,9 C 5,6 km/h (1 Bft)
09.02.2023 01:04 5,9 C -7,9 C -7,8 C 52 % 1028,4 hPa 0,0 l/m 1,6 km/h (1 Bft) N-NW 337 -11,9 C -7,9 C 0,0 km/h (0 Bft)
09.02.2023 01:02 5,9 C -7,9 C -7,3 C 52 % 1028,4 hPa 0,0 l/m 1,6 km/h (1 Bft) N-NO 22 -11,9 C -7,9 C 8,0 km/h (2 Bft)
09.02.2023 01:00 5,9 C -8,2 C -7,6 C 52 % 1028,4 hPa 0,0 l/m 1,3 km/h (1 Bft) O-SO 112 -12,2 C -8,2 C 8,0 km/h (2 Bft)
09.02.2023 00:58 5,9 C -8,2 C -7,7 C 52 % 1028,4 hPa 0,0 l/m 0,6 km/h (0 Bft) O-SO 112 -12,2 C -8,2 C 7,2 km/h (2 Bft)
09.02.2023 00:56 5,9 C -8,4 C -7,9 C 52 % 1028,6 hPa 0,0 l/m 0,3 km/h (0 Bft) S-SO 157 -12,5 C -8,4 C 4,6 km/h (1 Bft)
09.02.2023 00:54 5,9 C -8,6 C -7,9 C 52 % 1028,6 hPa 0,0 l/m 0,0 km/h (0 Bft) NW 315 -12,5 C -8,6 C 0,0 km/h (0 Bft)
09.02.2023 00:52 5,9 C -8,6 C -7,9 C 52 % 1028,6 hPa 0,0 l/m 0,0 km/h (0 Bft) SO 135 -12,5 C -8,6 C 0,0 km/h (0 Bft)
09.02.2023 00:50 5,9 C -8,6 C -8,0 C 52 % 1028,6 hPa 0,0 l/m 0,3 km/h (0 Bft) SO 135 -12,5 C -8,6 C 0,0 km/h (0 Bft)
09.02.2023 00:48 5,9 C -8,4 C -8,0 C 52 % 1028,6 hPa 0,0 l/m 0,8 km/h (0 Bft) NW 315 -12,4 C -8,4 C 0,0 km/h (0 Bft)
09.02.2023 00:46 5,9 C -8,4 C -7,9 C 52 % 1028,6 hPa 0,0 l/m 1,0 km/h (0 Bft) N-NW 337 -12,4 C -8,4 C 0,0 km/h (0 Bft)
09.02.2023 00:44 5,9 C -8,4 C -7,7 C 52 % 1028,6 hPa 0,0 l/m 1,0 km/h (0 Bft) SO 135 -12,4 C -8,4 C 0,0 km/h (0 Bft)
09.02.2023 00:42 5,9 C -8,4 C -7,6 C 52 % 1028,6 hPa 0,0 l/m 1,1 km/h (1 Bft) SO 135 -12,4 C -8,4 C 5,3 km/h (1 Bft)
09.02.2023 00:40 5,9 C -8,6 C -7,6 C 52 % 1028,6 hPa 0,0 l/m 1,1 km/h (1 Bft) S-SO 157 -12,5 C -8,6 C 2,9 km/h (1 Bft)
09.02.2023 00:38 5,9 C -8,6 C -7,7 C 52 % 1028,6 hPa 0,0 l/m 0,8 km/h (0 Bft) O-SO 112 -12,5 C -8,6 C 5,3 km/h (1 Bft)
09.02.2023 00:36 5,9 C -8,7 C -7,9 C 52 % 1028,8 hPa 0,0 l/m 0,5 km/h (0 Bft) SW 225 -12,6 C -8,7 C 2,4 km/h (1 Bft)
09.02.2023 00:34 5,9 C -8,7 C -7,9 C 52 % 1028,8 hPa 0,0 l/m 0,5 km/h (0 Bft) W-SW 247 -12,6 C -8,7 C 0,0 km/h (0 Bft)
09.02.2023 00:32 5,9 C -8,9 C -7,9 C 52 % 1028,8 hPa 0,0 l/m 0,5 km/h (0 Bft) SO 135 -12,8 C -8,9 C 3,6 km/h (1 Bft)
09.02.2023 00:30 5,9 C -8,9 C -7,9 C 52 % 1028,8 hPa 0,0 l/m 0,3 km/h (0 Bft) SO 135 -12,8 C -8,9 C 3,6 km/h (1 Bft)
09.02.2023 00:28 5,9 C -8,9 C -7,9 C 52 % 1028,8 hPa 0,0 l/m 0,3 km/h (0 Bft) S 180 -12,8 C -8,9 C 0,0 km/h (0 Bft)
09.02.2023 00:26 5,9 C -9,0 C -8,0 C 52 % 1028,8 hPa 0,0 l/m 0,2 km/h (0 Bft) S 180 -12,9 C -9,0 C 2,7 km/h (1 Bft)
09.02.2023 00:24 5,9 C -9,0 C -8,2 C 52 % 1028,8 hPa 0,0 l/m 0,2 km/h (0 Bft) W-SW 247 -12,9 C -9,0 C 0,0 km/h (0 Bft)
09.02.2023 00:22 5,9 C -9,0 C -8,0 C 52 % 1028,8 hPa 0,0 l/m 0,0 km/h (0 Bft) SO 135 -12,9 C -9,0 C 2,7 km/h (1 Bft)
09.02.2023 00:20 5,9 C -9,0 C -8,2 C 52 % 1028,8 hPa 0,0 l/m 0,0 km/h (0 Bft) SO 135 -12,9 C -9,0 C 2,7 km/h (1 Bft)
09.02.2023 00:18 5,9 C -9,0 C -8,2 C 52 % 1028,8 hPa 0,0 l/m 0,0 km/h (0 Bft) SW 225 -12,9 C -9,0 C 0,0 km/h (0 Bft)
09.02.2023 00:16 5,9 C -9,0 C -8,2 C 52 % 1028,9 hPa 0,0 l/m 0,0 km/h (0 Bft) S-SO 157 -13,1 C -9,0 C 0,0 km/h (0 Bft)
09.02.2023 00:14 5,9 C -9,2 C -8,2 C 52 % 1028,9 hPa 0,0 l/m 0,0 km/h (0 Bft) SW 225 -13,3 C -9,2 C 0,0 km/h (0 Bft)
09.02.2023 00:12 5,9 C -9,2 C -8,2 C 52 % 1028,9 hPa 0,0 l/m 0,0 km/h (0 Bft) SO 135 -13,3 C -9,2 C 0,0 km/h (0 Bft)
09.02.2023 00:10 5,9 C -9,2 C -8,3 C 52 % 1028,9 hPa 0,0 l/m 0,0 km/h (0 Bft) W 270 -13,3 C -9,2 C 0,0 km/h (0 Bft)
09.02.2023 00:08 5,9 C -9,2 C -8,2 C 52 % 1028,9 hPa 0,0 l/m 0,0 km/h (0 Bft) N-NO 22 -13,3 C -9,2 C 0,0 km/h (0 Bft)
09.02.2023 00:06 5,9 C -9,2 C -8,2 C 52 % 1028,9 hPa 0,0 l/m 0,0 km/h (0 Bft) W 270 -13,3 C -9,2 C 0,0 km/h (0 Bft)
09.02.2023 00:04 5,9 C -9,2 C -8,2 C 52 % 1028,9 hPa 0,0 l/m 0,0 km/h (0 Bft) SO 135 -13,3 C -9,2 C 0,0 km/h (0 Bft)
09.02.2023 00:02 5,9 C -9,2 C -8,2 C 52 % 1028,9 hPa 0,0 l/m 0,0 km/h (0 Bft) SO 135 -13,3 C -9,2 C 0,0 km/h (0 Bft)
09.02.2023 00:00 5,9 C -9,3 C -8,2 C 52 % 1028,9 hPa 0,0 l/m 0,0 km/h (0 Bft) S 180 -13,4 C -9,3 C 0,0 km/h (0 Bft)
_ Min-Zeit 04:02 00:00 00:10 00:00 04:18 - 00:00 - - 04:24 00:00 00:00
Minimum _ 5,8 C -9,3 C -8,3 C 52 % 1026,5 hPa - 0,0 km/h (0 Bft) - - -13,4 C -9,3 C 0,0 km/h (0 Bft)
_ Max-Zeit 01:14 01:26 01:26 00:00 00:00 00:00 01:18 - - 01:26 01:26 01:12
Maximum _ 6,0 C -6,2 C -6,1 C 52 % 1028,9 hPa 0,0 l/m 4,5 km/h
S-SO (1 Bft)
- - -10,4 C -6,2 C 11,6 km/h
SO (2 Bft)
Durchschnitt _ 5,9 C -8,1 C -7,8 C 52 % 1027,8 hPa #0,0 l/m 0,8 km/h (0 Bft) SO - -12,6 C -8,1 C 1,7 km/h (1 Bft)